| time (UTC) | temp F | wind direction | speed MPH | gust MPH | rain 1hr in | rain 24hr in | rain mn in | humidity % | barometer mb |
| 20260831030744 | 75 | 45 | 2.0 | 4.0 | 0.00 | 0.00 | 0.00 | 36 | 1029.4 |
| 20260831024746 | 76 | 315 | 2.0 | 5.0 | 0.00 | 0.00 | 0.00 | 36 | 1029.8 |
| 20260831024246 | 76 | 0 | 1.0 | 2.0 | 0.00 | 0.00 | 0.00 | 35 | 1029.9 |
| 20260831022251 | 76 | 0 | 2.0 | 2.0 | 0.00 | 0.00 | 0.00 | 39 | 1030.2 |
| 20260831021752 | 74 | 90 | 0.0 | 2.0 | 0.00 | 0.00 | 0.00 | 42 | 1030.2 |
| 20260831020254 | 75 | 23 | 1.0 | 2.0 | 0.00 | 0.00 | 0.00 | 42 | 1030.5 |
| 20260831014758 | 72 | 293 | 2.0 | 3.0 | 0.00 | 0.00 | 0.00 | 46 | 1030.7 |
| 20260831014259 | 72 | 0 | 4.0 | 5.0 | 0.00 | 0.00 | 0.00 | 44 | 1030.8 |
| 20260831012305 | 73 | 0 | 2.0 | 4.0 | 0.00 | 0.00 | 0.00 | 48 | 1031.0 |
| 20260831011803 | 73 | 338 | 3.0 | 4.0 | 0.00 | 0.00 | 0.00 | 49 | 1031.1 |
| 20260831011303 | 73 | 0 | 2.0 | 4.0 | 0.00 | 0.00 | 0.00 | 49 | 1031.1 |
| 20260831010306 | 71 | 45 | 2.0 | 5.0 | 0.00 | 0.00 | 0.00 | 50 | 1031.3 |
| 20260831005807 | 70 | 0 | 2.0 | 4.0 | 0.00 | 0.00 | 0.00 | 52 | 1031.2 |
| 20260831004809 | 68 | 0 | 2.0 | 4.0 | 0.00 | 0.00 | 0.00 | 58 | 1031.3 |
| 20260831004309 | 68 | 0 | 4.0 | 5.0 | 0.00 | 0.00 | 0.00 | 61 | 1031.3 |
| 20260831002813 | 66 | 315 | 5.0 | 6.0 | 0.00 | 0.00 | 0.00 | 66 | 1031.3 |
| 20260831001316 | 66 | 315 | 2.0 | 5.0 | 0.00 | 0.00 | 0.00 | 69 | 1031.3 |
| 20260831000816 | 65 | 315 | 6.0 | 8.0 | 0.00 | 0.00 | 0.00 | 69 | 1031.4 |
| 20260830234322 | 65 | 0 | 2.0 | 3.0 | 0.00 | 0.00 | 0.00 | 72 | 1031.3 |
| 20260830233324 | 64 | 0 | 2.0 | 4.0 | 0.00 | 0.00 | 0.00 | 70 | 1031.4 |
| 20260830231327 | 62 | 45 | 0.0 | 1.0 | 0.00 | 0.00 | 0.00 | 73 | 1031.3 |
| 20260830230323 | 62 | 0 | 2.0 | 2.0 | 0.00 | 0.00 | 0.00 | 72 | 1031.2 |
| 20260830225551 | 62 | 0 | 0.0 | 2.0 | 0.00 | 0.00 | 0.00 | 73 | 1031.2 |
| 20260830225053 | 62 | 45 | 0.0 | 2.0 | 0.00 | 0.00 | 0.00 | 74 | 1031.2 |
| 20260830223556 | 60 | 0 | 1.0 | 2.0 | 0.00 | 0.00 | 0.00 | 78 | 1031.2 |
| 20260830223057 | 60 | 0 | 0.0 | 1.0 | 0.00 | 0.00 | 0.00 | 79 | 1031.2 |
| 20260830221600 | 60 | 45 | 1.0 | 2.0 | 0.00 | 0.00 | 0.00 | 79 | 1031.1 |
| 20260830220602 | 59 | 0 | 2.0 | 2.0 | 0.00 | 0.00 | 0.00 | 82 | 1031.1 |
| 20260830214106 | 57 | 0 | 2.0 | 2.0 | 0.00 | 0.00 | 0.00 | 93 | 1030.9 |
| 20260830204617 | 53 | 23 | 3.0 | 4.0 | 0.00 | 0.00 | 0.00 | 98 | 1030.1 |
| 20260830202615 | 53 | 45 | 3.0 | 4.0 | 0.00 | 0.00 | 0.00 | 98 | 1030.0 |
| 20260830201059 | 53 | 90 | 2.0 | 2.0 | 0.00 | 0.00 | 0.00 | 98 | 1030.1 |
| 20260830200600 | 53 | 90 | 2.0 | 2.0 | 0.00 | 0.00 | 0.00 | 98 | 1030.0 |
| 20260830194105 | 52 | 135 | 0.0 | 1.0 | 0.00 | 0.00 | 0.00 | 98 | 1029.7 |
| 20260830193606 | 52 | 135 | 0.0 | 0.0 | 0.00 | 0.00 | 0.00 | 97 | 1029.7 |
| 20260830193107 | 52 | 135 | 0.0 | 0.0 | 0.00 | 0.00 | 0.00 | 98 | 1029.6 |
| 20260830192109 | 53 | 135 | 0.0 | 1.0 | 0.00 | 0.00 | 0.00 | 97 | 1029.5 |
| 20260830190610 | 52 | 135 | 0.0 | 1.0 | 0.00 | 0.00 | 0.00 | 97 | 1029.6 |
| 20260830190112 | 53 | 135 | 0.0 | 1.0 | 0.00 | 0.00 | 0.00 | 97 | 1029.6 |
| 20260830185114 | 53 | 135 | 0.0 | 1.0 | 0.00 | 0.00 | 0.00 | 97 | 1029.6 |
| 20260830184116 | 53 | 135 | 0.0 | 1.0 | 0.00 | 0.00 | 0.00 | 97 | 1029.6 |
| 20260830173626 | 53 | 135 | 0.0 | 1.0 | 0.00 | 0.00 | 0.00 | 96 | 1029.7 |
| 20260830173126 | 52 | 135 | 0.0 | 1.0 | 0.00 | 0.00 | 0.00 | 95 | 1029.6 |
| 20260830172626 | 52 | 135 | 1.0 | 2.0 | 0.00 | 0.00 | 0.00 | 95 | 1029.6 |
| 20260830172126 | 52 | 135 | 0.0 | 0.0 | 0.00 | 0.00 | 0.00 | 95 | 1029.7 |
| 20260830171126 | 53 | 135 | 0.0 | 1.0 | 0.00 | 0.00 | 0.00 | 95 | 1029.6 |
| 20260830170627 | 53 | 135 | 0.0 | 1.0 | 0.00 | 0.00 | 0.00 | 95 | 1029.6 |
| 20260830163633 | 55 | 135 | 0.0 | 1.0 | 0.00 | 0.00 | 0.00 | 94 | 1029.7 |
| 20260830162135 | 55 | 135 | 1.0 | 2.0 | 0.00 | 0.00 | 0.00 | 94 | 1029.7 |
| 20260830161136 | 55 | 135 | 1.0 | 2.0 | 0.00 | 0.00 | 0.00 | 93 | 1029.7 |
| 20260830160637 | 55 | 135 | 0.0 | 2.0 | 0.00 | 0.00 | 0.00 | 93 | 1029.7 |
| 20260830160137 | 55 | 135 | 2.0 | 3.0 | 0.00 | 0.00 | 0.00 | 93 | 1029.8 |
| 20260830155138 | 55 | 135 | 2.0 | 3.0 | 0.00 | 0.00 | 0.00 | 93 | 1029.8 |
| 20260830153142 | 56 | 135 | 2.0 | 2.0 | 0.00 | 0.00 | 0.00 | 94 | 1030.0 |
| 20260830152642 | 56 | 135 | 2.0 | 2.0 | 0.00 | 0.00 | 0.00 | 94 | 1030.0 |
| 20260830151644 | 56 | 135 | 2.0 | 2.0 | 0.00 | 0.00 | 0.00 | 94 | 1030.1 |
| 20260830150646 | 55 | 135 | 0.0 | 1.0 | 0.00 | 0.00 | 0.00 | 93 | 1030.0 |
| 20260830145649 | 55 | 135 | 1.0 | 2.0 | 0.00 | 0.00 | 0.00 | 93 | 1030.1 |
| 20260830145149 | 55 | 135 | 1.0 | 2.0 | 0.00 | 0.00 | 0.00 | 93 | 1030.2 |
| 20260830144651 | 55 | 135 | 0.0 | 1.0 | 0.00 | 0.00 | 0.00 | 92 | 1030.2 |
| 20260830144152 | 55 | 135 | 2.0 | 2.0 | 0.00 | 0.00 | 0.00 | 91 | 1030.2 |
| 20260830143653 | 54 | 135 | 1.0 | 2.0 | 0.00 | 0.00 | 0.00 | 90 | 1030.2 |
| 20260830142156 | 55 | 135 | 1.0 | 2.0 | 0.00 | 0.00 | 0.00 | 88 | 1030.1 |
| 20260830141657 | 55 | 90 | 0.0 | 1.0 | 0.00 | 0.00 | 0.00 | 87 | 1030.1 |
| 20260830141157 | 55 | 90 | 0.0 | 0.0 | 0.00 | 0.00 | 0.00 | 86 | 1030.1 |
| 20260830140658 | 55 | 90 | 1.0 | 2.0 | 0.00 | 0.00 | 0.00 | 84 | 1030.1 |
| 20260830135701 | 56 | 90 | 0.0 | 1.0 | 0.00 | 0.00 | 0.00 | 82 | 1030.1 |
| 20260830133705 | 58 | 90 | 0.0 | 1.0 | 0.00 | 0.00 | 0.00 | 81 | 1030.0 |
| 20260830133206 | 58 | 90 | 0.0 | 0.0 | 0.00 | 0.00 | 0.00 | 81 | 1030.1 |
| 20260830131709 | 58 | 135 | 0.0 | 0.0 | 0.00 | 0.00 | 0.00 | 83 | 1030.2 |
| 20260830125713 | 57 | 135 | 0.0 | 0.0 | 0.00 | 0.00 | 0.00 | 89 | 1030.2 |
| 20260830124715 | 57 | 135 | 1.0 | 2.0 | 0.00 | 0.00 | 0.00 | 90 | 1030.3 |
| 20260830124215 | 57 | 135 | 0.0 | 1.0 | 0.00 | 0.00 | 0.00 | 91 | 1030.3 |
| 20260830123716 | 57 | 135 | 2.0 | 2.0 | 0.00 | 0.00 | 0.00 | 90 | 1030.4 |
| 20260830122218 | 57 | 90 | 1.0 | 2.0 | 0.00 | 0.00 | 0.00 | 89 | 1030.2 |
| 20260830121719 | 57 | 90 | 0.0 | 1.0 | 0.00 | 0.00 | 0.00 | 89 | 1030.1 |
| 20260830121219 | 57 | 90 | 0.0 | 1.0 | 0.00 | 0.00 | 0.00 | 88 | 1030.1 |
| 20260830120719 | 57 | 90 | 1.0 | 2.0 | 0.00 | 0.00 | 0.00 | 88 | 1030.1 |
| 20260830115721 | 57 | 90 | 0.0 | 0.0 | 0.00 | 0.00 | 0.00 | 88 | 1030.0 |
| 20260830113726 | 58 | 90 | 0.0 | 1.0 | 0.00 | 0.00 | 0.00 | 87 | 1030.0 |
| 20260830112229 | 57 | 90 | 0.0 | 0.0 | 0.00 | 0.00 | 0.00 | 85 | 1030.1 |
| 20260830110233 | 58 | 90 | 0.0 | 0.0 | 0.00 | 0.00 | 0.00 | 87 | 1029.9 |
| 20260830104736 | 58 | 90 | 0.0 | 0.0 | 0.00 | 0.00 | 0.00 | 88 | 1030.0 |
| 20260830101242 | 58 | 90 | 0.0 | 0.0 | 0.00 | 0.00 | 0.00 | 83 | 1029.9 |
| 20260830100744 | 58 | 90 | 0.0 | 0.0 | 0.00 | 0.00 | 0.00 | 82 | 1029.8 |
| 20260830100245 | 58 | 90 | 0.0 | 0.0 | 0.00 | 0.00 | 0.00 | 81 | 1029.9 |
| 20260830094249 | 58 | 90 | 0.0 | 0.0 | 0.00 | 0.00 | 0.00 | 79 | 1029.7 |
| 20260830092751 | 60 | 90 | 0.0 | 1.0 | 0.00 | 0.00 | 0.00 | 78 | 1029.7 |
| 20260830084800 | 61 | 90 | 1.0 | 2.0 | 0.00 | 0.00 | 0.00 | 74 | 1029.3 |
| 20260830084301 | 61 | 90 | 1.0 | 2.0 | 0.00 | 0.00 | 0.00 | 74 | 1029.3 |
| 20260830083802 | 61 | 90 | 1.0 | 2.0 | 0.00 | 0.00 | 0.00 | 73 | 1029.3 |
| 20260830080805 | 62 | 90 | 1.0 | 2.0 | 0.00 | 0.00 | 0.00 | 73 | 1029.1 |
| 20260830080306 | 62 | 90 | 2.0 | 2.0 | 0.00 | 0.00 | 0.00 | 72 | 1029.0 |
| 20260830075309 | 62 | 90 | 2.0 | 2.0 | 0.00 | 0.00 | 0.00 | 71 | 1028.9 |
| 20260830074810 | 62 | 90 | 1.0 | 2.0 | 0.00 | 0.00 | 0.00 | 71 | 1028.9 |
| 20260830073812 | 63 | 90 | 1.0 | 2.0 | 0.00 | 0.00 | 0.00 | 69 | 1028.8 |
| 20260830072814 | 64 | 90 | 1.0 | 2.0 | 0.00 | 0.00 | 0.00 | 68 | 1028.8 |
| 20260830070317 | 65 | 90 | 1.0 | 2.0 | 0.00 | 0.00 | 0.00 | 64 | 1028.6 |
| 20260830065818 | 65 | 90 | 1.0 | 2.0 | 0.00 | 0.00 | 0.00 | 64 | 1028.6 |
| 20260830065318 | 66 | 90 | 1.0 | 2.0 | 0.00 | 0.00 | 0.00 | 63 | 1028.6 |
| 20260830064319 | 67 | 90 | 2.0 | 3.0 | 0.00 | 0.00 | 0.00 | 61 | 1028.6 |
| 20260830063322 | 67 | 90 | 2.0 | 3.0 | 0.00 | 0.00 | 0.00 | 61 | 1028.5 |
| 20260830062823 | 67 | 135 | 2.0 | 3.0 | 0.00 | 0.00 | 0.00 | 61 | 1028.5 |
| 20260830061325 | 67 | 135 | 2.0 | 4.0 | 0.00 | 0.00 | 0.00 | 61 | 1028.4 |
| 20260830055330 | 68 | 135 | 2.0 | 3.0 | 0.00 | 0.00 | 0.00 | 60 | 1028.4 |
| 20260830054332 | 69 | 90 | 2.0 | 2.0 | 0.00 | 0.00 | 0.00 | 57 | 1028.4 |
| 20260830053833 | 69 | 90 | 2.0 | 2.0 | 0.00 | 0.00 | 0.00 | 56 | 1028.4 |
| 20260830053334 | 70 | 90 | 2.0 | 4.0 | 0.00 | 0.00 | 0.00 | 54 | 1028.4 |
| 20260830050338 | 71 | 90 | 2.0 | 3.0 | 0.00 | 0.00 | 0.00 | 53 | 1028.6 |
| 20260830044841 | 71 | 90 | 3.0 | 5.0 | 0.00 | 0.00 | 0.00 | 52 | 1028.6 |
| 20260830043843 | 74 | 135 | 2.0 | 5.0 | 0.00 | 0.00 | 0.00 | 47 | 1028.5 |
| 20260830042845 | 75 | 135 | 4.0 | 5.0 | 0.00 | 0.00 | 0.00 | 45 | 1028.6 |
| 20260830041826 | 74 | 135 | 2.0 | 3.0 | 0.00 | 0.00 | 0.00 | 47 | 1028.6 |
| 20260830041327 | 74 | 180 | 3.0 | 5.0 | 0.00 | 0.00 | 0.00 | 46 | 1028.6 |
| 20260830033335 | 74 | 0 | 2.0 | 3.0 | 0.00 | 0.00 | 0.00 | 47 | 1028.9 |
| 20260830031838 | 74 | 225 | 2.0 | 2.0 | 0.00 | 0.00 | 0.00 | 48 | 1028.9 |